Regional Weather Roundup
Issued by NWS

Home | Current Version | Previous Version | Graphics & Text | Print | Product List | Glossary On
Versions: 1 2 3 4 5 6 7 8 9 10 11 12 13 14 15 16 17 18 19 20 21 22 23 24 25 26 27 28 29 30 31 32 33 34 35 36 37 38 39 40 41 42 43 44 45 46 47 48 49 50
000
ASUS43 KMKX 191110
RWRWI

WISCONSIN REGIONAL WEATHER ROUNDUP
NATIONAL WEATHER SERVICE MILWAUKEE/SULLIVAN WI
500 AM CST SUN NOV 19 2017

NOTE: "FAIR" INDICATES FEW OR NO CLOUDS BELOW 12,000 FEET WITH NO
SIGNIFICANT WEATHER AND/OR OBSTRUCTIONS TO VISIBILITY.

WIZ001-002-006>008-014>016-023>028-191200-
NORTHWEST WISCONSIN

CITY           SKY/WX    TMP DP  RH WIND       PRES   REMARKS
SUPERIOR ARPT  CLEAR     14   9  79 W6        30.01S WCI   5
ASHLAND        MOCLDY    17   9  70 W13       29.97S WCI   4
HAYWARD        CLEAR     14   8  77 VRB5      29.98S WCI   6
SIREN          CLEAR     13   9  81 SW3       30.03S
CUMBERLAND     CLEAR     14   9  79 W5        30.00S WCI   6
RICE LAKE      CLEAR     17  10  75 W8        30.03S WCI   6
CHETEK         CLEAR     16  10  74 NW7       30.02R WCI   7
LADYSMITH      PTCLDY    17  11  78 W9        29.99R WCI   5
EAU CLAIRE     CLEAR     17  10  74 W9        30.03R WCI   6
MENOMONIE      CLEAR     18  11  74 W7        30.04S WCI   8
NEW RICHMOND   CLEAR     15   9  77 W6        30.04F WCI   6
OSCEOLA        CLEAR     16  11  79 W5        30.08S WCI   9
$$

WIZ003>005-009-010-017-018-191200-
NORTH CENTRAL WISCONSIN

CITY           SKY/WX    TMP DP  RH WIND       PRES   REMARKS
MANITOWISH WTR LGT SNOW  15  14  94 CALM      29.89S
ARBOR VITAE    LGT SNOW  19  14  82 NW7       29.88S WCI  10
WOODRUFF       LGT SNOW  19  14  82 NW7       29.88S WCI  10
RHINELANDER    LGT SNOW   1  32 100 W10       29.88S WCI -15
EAGLE RIVER    FLURRIES  17  11  78 W9        29.87R WCI   6
LAND O LAKES   LGT SNOW  18  14  87 W6        29.87R WCI   9
PHILLIPS       CLOUDY    16  10  74 W8        29.92R WCI   6
TOMAHAWK       FLURRIES  17  11  75 W8        29.91S WCI   7
MEDFORD        FLURRIES  18  11  74 W12       29.92R WCI   6
MERRILL        CLOUDY    19  10  69 NW9G17    29.93R WCI   7
$$

WIZ029-030-035-036-043>047-191200-
CENTRAL WISCONSIN

CITY           SKY/WX    TMP DP  RH WIND       PRES   REMARKS
WAUSAU         CLOUDY    20  11  68 NW9G18    29.91R WCI   9
MOSINEE        CLOUDY    19  12  73 NW16      29.93R WCI   5
MARSHFIELD     CLOUDY    20  11  68 NW15G23   29.93S WCI   6
STEVENS POINT  CLOUDY    21  11  65 NW10G17   29.93S WCI  10
WAUPACA        CLOUDY    28  14  57 W12       29.93R WCI  17
WAUTOMA        NOT AVBL
WISC RAPIDS    MOCLDY    21  12  68 NW12G22   29.97R WCI   9
CAMP DOUGLAS   CLOUDY   N/A N/A N/A W13G22    29.99R
$$

WIZ011>013-019>022-031-037>040-048>050-191200-
NORTHEAST WISCONSIN

CITY           SKY/WX    TMP DP  RH WIND       PRES   REMARKS
ANTIGO         FLURRIES  20  14  76 NW16G22   29.87S WCI   6
SHAWANO        CLOUDY    28  16  61 NW9G16    29.90S WCI  19
OCONTO         CLOUDY    27  14  57 NW13G22   29.89R WCI  16
STURGEON BAY   CLOUDY    28  18  66 NW17G26   29.86R WCI  16
GREEN BAY      CLOUDY    27  17  66 NW17G24   29.91R WCI  14
MANITOWOC      CLOUDY    28  18  66 NW16G29   29.89R WCI  16
APPLETON       CLOUDY    27  12  54 NW10G17   29.89R WCI  17
CLINTONVILLE   CLOUDY    27  12  54 NW18G24   29.91S WCI  13
OSHKOSH        CLOUDY    27  16  63 NW15      29.91R WCI  15
$$

WIZ032>034-041-042-053>061-191200-
SOUTHWEST WISCONSIN

CITY           SKY/WX    TMP DP  RH WIND       PRES   REMARKS
LA CROSSE      CLEAR     22  12  65 N15       30.05R WCI   9
SPARTA         PTCLDY    20  13  75 NW10      30.03S WCI   9
VIROQUA        CLEAR     19  15  83 NW12G17   29.99R WCI   7
BOSCOBEL       CLEAR     23  13  65 W8        30.05R WCI  14
PRAIRIE DU CHI CLEAR     22  13  68 W12       30.06R WCI  11
PLATTEVILLE    CLEAR     22  16  78 NW10G16   30.02R WCI  11
$$

WIZ056-057-062-063-064-067-068-191200-
SOUTH CENTRAL WISCONSIN

CITY           SKY/WX    TMP DP  RH WIND       PRES   REMARKS
REEDSBURG      MOCLDY    23  14  70 NW9       29.99R WCI  13
BARABOO/DELLS  CLOUDY    24  15  69 NW12G17   29.97R WCI  13
LONE ROCK      CLEAR     23  17  78 NW9G22    30.02R WCI  13
MINERAL POINT  CLEAR     23  19  86 NW10G17   29.99R WCI  12
MADISON        CLOUDY    25  16  68 NW6       29.97R WCI  18
MIDDLETON      CLOUDY    26  18  70 NW15G24   29.97R WCI  14
WATERTOWN      CLOUDY    27  18  67 NW9       29.94R WCI  18
MONROE         CLOUDY    27  18  69 NW10G18   29.96R WCI  17
JANESVILLE     PTCLDY    28  19  69 NW12      29.96R WCI  18
$$

WIZ051-052-058>065-066-070>072-191200-
SOUTHEAST WISCONSIN

CITY           SKY/WX    TMP DP  RH WIND       PRES   REMARKS
MILWAUKEE      CLOUDY    31  18  58 NW17      29.90S WCI  19
WAUKESHA       CLOUDY    28  18  64 W17       29.92R WCI  16
MILWAUKEE/TIMM MOCLDY    30  14  51 NW17G23   29.92R WCI  18
RACINE         CLOUDY    31  21  66 NW7G17    29.92R WCI  24
BURLINGTON     CLOUDY    30  24  75 NW12      29.93R WCI  21
KENOSHA        CLOUDY    31  20  63 NW13      29.91R WCI  21
FOND DU LAC    CLOUDY    28  15  58 NW13      29.92R WCI  17
SHEBOYGAN      CLOUDY    28  19  69 NW13G23   29.89R WCI  17
WEST BEND      CLOUDY    28  19  69 W13G21    29.90R WCI  18
JUNEAU         CLOUDY    26  16  66 W10G18    29.94R WCI  16
$$

LSZ147-162-191200-
LAKE SUPERIOR

STATION/POSITION TIME  TEMP    WIND        PRES    WAVE
                       AIR SEA DIR/SP/G            HT/PER
                 (UTC) (F)     (DEG/KT/KT) (MB)    (FT/S)
DEVILS ISLAND    1100   20     290/ 13/ 19 1015.4R
SAXON HARBOR     1040   21     250/  8/ 11 1014.2S
$$

LMZ867-665-643>646-191200-
LAKE MICHIGAN

STATION/POSITION TIME  TEMP    WIND        PRES    WAVE
                       AIR SEA DIR/SP/G            HT/PER
                 (UTC) (F)     (DEG/KT/KT) (MB)    (FT/S)
N MID LAKE BUOY  1050   31 48  300/ 23/ 29 1009.8R   5/ 5
NORTHPORT PIER   1056   31     320/ 19/ 25 1010.2R
SHEBOYGAN LAKESH 1100   30     310/ 13/ 15 1012.8R
PORT WASHINGTON  1030   30     310/  7/ 13 1013.2S
MILWAUKEE LAKESH 1030   31     310/ 12/ 15   N/A
S MID LAKE BUOY  1050   36 49  330/ 19/ 27 1012.2R   7/ 7
KENOSHA   LAKESH 1100   31     300/ 12/ 17 1012.9
$$

TC  - TEMPERATURE IN CELSIUS
VSB - VISIBILITY IN STATUTE MILES
WCI - WIND CHILL INDEX
HX  - HEAT INDEX





USA.gov is the U.S. government's official web portal to all federal, state and local government web resources and services.